Location: Mannheim
(49.4880°N, 8.4650°E)
Time: 05:22:31
(UTC+02:00)

ACS3 Solar Sail - Pass Details

Date: 26 September 2024
Orbit: 963 x 1036 km, 97.4° (Epoch: 04 October)

Event Time Altitude Azimuth Distance (km) Brightness Sun altitude
Exits shadow 22:25:06 18° 211° (SSW) 2,300 3.6 -29.8°
Maximum altitude 22:29:16 36° 267° (W) 1,574 3.1 -30.3°
Drops below altitude 10° 22:35:07 10° 333° (NNW) 2,833 5.0 -31.1°
Sets 22:37:52 0° 342° (NNW) 3,781 5.7 -31.4°
